User: anonymous   Login
Location: Unspecified
(0.0000°N, 0.0000°E)
Time: 15:30:43
(UTC+00:00)
Language:

USA 67 - Orbit

View from above orbital plane
View from above orbital plane
View from above satellite
View from above satellite

Ground track
Ground track

The orbit data is extracted from the following two-line orbital elements,

1 20963U 90097B   17097.41083385 0.00000000  00000-0  00000-0 0    04
2 20963  16.6479   4.9204 0017991 206.7716 153.1475  0.98578264    05
Epoch (UTC): 07 April 2017 09:51:36
Eccentricity: 0.0017991
inclination: 16.6479°
perigee height: 36191 km
apogee height: 36344 km
right ascension of ascending node: 4.9204°
argument of perigee: 206.7716°
revolutions per day: 0.98578264
mean anomaly at epoch: 153.1475°
orbit number at epoch: 0

The dashed part of the orbit path shows where the satellite is in the earth's shadow,  

DLR